CW9676 Weather Reports


time (UTC)temp
F
wind
direction
speed
knots
gust
knots
rain 1hr
in
rain 24hr
in
rain mn
in
humidity
%
barometer
mb
20260507211247 74 136 2.6 9.6 0.00 0.00 0.00 15 1007.5
20260507210236 70 123 4.3 11.3 0.00 0.00 0.00 17 1007.8
20260507204041 76 128 6.1 13.9 0.00 0.00 0.00 14 1008.0
20260507203009 75 64 5.2 13.9 0.00 0.00 0.00 15 1008.1
20260507200918 74 19 4.3 11.3 0.00 0.00 0.00 16 1008.5
20260507195922 75 81 4.3 11.3 0.00 0.00 0.00 16 1008.6
20260507194934 74 55 5.2 13.0 0.00 0.00 0.00 16 1008.8
20260507193949 73 59 6.1 13.0 0.00 0.00 0.00 16 1009.0
20260507192939 73 61 2.6 11.3 0.00 0.00 0.00 17 1009.1
20260507192002 72 125 3.5 9.6 0.00 0.00 0.00 15 1009.2
20260507190932 73 67 2.6 8.7 0.00 0.00 0.00 16 1009.4
20260507185916 73 285 1.7 7.8 0.00 0.00 0.00 15 1009.6
20260507184932 73 32 5.2 11.3 0.00 0.00 0.00 14 1009.8
20260507183924 72 43 4.3 11.3 0.00 0.00 0.00 15 1009.9
20260507182944 72 22 4.3 10.4 0.00 0.00 0.00 15 1010.0
20260507181953 72 359 4.3 11.3 0.00 0.00 0.00 16 1010.3
20260507175824 71 313 4.3 13.9 0.00 0.00 0.00 17 1010.5
20260507174805 70 346 3.5 13.9 0.00 0.00 0.00 18 1010.7
20260507173825 69 166 3.5 7.8 0.00 0.00 0.00 19 1010.9
20260507172756 70 92 1.7 5.2 0.00 0.00 0.00 19 1011.0
20260507165427 68 59 2.6 9.6 0.00 0.00 0.00 21 1011.4
20260507164435 69 56 1.7 7.8 0.00 0.00 0.00 20 1011.5
20260507163424 67 36 3.5 7.8 0.00 0.00 0.00 22 1011.6
20260507162428 66 48 4.3 8.7 0.00 0.00 0.00 24 1011.7
20260507155141 64 53 5.2 9.6 0.00 0.00 0.00 25 1012.0
20260507154202 65 29 4.3 9.6 0.00 0.00 0.00 25 1012.0
20260507152052 65 49 3.5 9.6 0.00 0.00 0.00 26 1012.1
20260507151116 65 19 3.5 9.6 0.00 0.00 0.00 25 1012.2
20260507150114 65 60 2.6 6.1 0.00 0.00 0.00 26 1012.3
20260507145053 63 72 3.5 7.0 0.00 0.00 0.00 27 1012.3
20260507143020 64 14 2.6 5.2 0.00 0.00 0.00 27 1012.3
20260507142003 63 38 2.6 5.2 0.00 0.00 0.00 27 1012.2
20260507141019 63 353 1.7 4.3 0.00 0.00 0.00 27 1012.3
20260507134924 57 247 0.0 0.0 0.00 0.00 0.00 33 1012.6
20260507133934 55 246 0.0 0.9 0.00 0.00 0.00 32 1012.5
20260507132948 54 248 0.0 0.9 0.00 0.00 0.00 32 1012.4
20260507130820 51 132 0.0 0.9 0.00 0.00 0.00 34 1012.3
20260507124645 50 132 0.0 0.9 0.00 0.00 0.00 36 1012.0
20260507123708 50 132 0.0 0.0 0.00 0.00 0.00 37 1012.0
20260507122633 51 132 0.9 1.7 0.00 0.00 0.00 37 1012.0
20260507121632 52 132 0.9 2.6 0.00 0.00 0.00 38 1011.9
20260507120634 53 270 0.9 4.3 0.00 0.00 0.00 38 1011.7
20260507115618 54 244 3.5 7.0 0.00 0.00 0.00 37 1011.7
20260507113454 54 290 3.5 5.2 0.00 0.00 0.00 38 1011.8
20260507112452 54 307 2.6 5.2 0.00 0.00 0.00 38 1011.8
20260507111507 54 296 0.9 2.6 0.00 0.00 0.00 37 1012.0
20260507110513 53 296 0.0 1.7 0.00 0.00 0.00 37 1012.1
20260507105530 52 348 0.9 2.6 0.00 0.00 0.00 37 1012.1
20260507104521 52 346 1.7 5.2 0.00 0.00 0.00 38 1012.0
20260507103544 52 261 3.5 5.2 0.00 0.00 0.00 37 1012.1
20260507102524 54 250 2.6 4.3 0.00 0.00 0.00 35 1012.2
20260507101513 54 253 3.5 5.2 0.00 0.00 0.00 34 1012.2
20260507100503 55 252 4.3 7.0 0.00 0.00 0.00 33 1012.3
20260507095527 54 245 4.3 7.0 0.00 0.00 0.00 33 1012.3
20260507094526 53 264 3.5 5.2 0.00 0.00 0.00 33 1012.3
20260507093517 52 255 2.6 3.5 0.00 0.00 0.00 32 1012.4
20260507092500 53 229 1.7 2.6 0.00 0.00 0.00 31 1012.5
20260507091457 54 263 2.6 3.5 0.00 0.00 0.00 31 1012.4
20260507090521 54 268 2.6 3.5 0.00 0.00 0.00 30 1012.6
20260507085450 55 280 0.9 2.6 0.00 0.00 0.00 29 1012.6
20260507083308 53 261 0.0 1.7 0.00 0.00 0.00 30 1012.8
20260507082319 52 260 0.9 2.6 0.00 0.00 0.00 31 1012.8
20260507080228 54 223 1.7 2.6 0.00 0.00 0.00 29 1013.0
20260507075154 54 231 2.6 5.2 0.00 0.00 0.00 29 1013.1
20260507073020 55 245 3.5 7.0 0.00 0.00 0.00 28 1013.1
20260507065740 56 209 5.2 9.6 0.00 0.00 0.00 27 1013.3
20260507064744 56 243 5.2 9.6 0.00 0.00 0.00 27 1013.3
20260507062556 56 236 5.2 9.6 0.00 0.00 0.00 27 1013.2
20260507061543 55 226 5.2 7.8 0.00 0.00 0.00 27 1013.4
20260507060555 55 252 4.3 7.0 0.00 0.00 0.00 27 1013.5
20260507055535 55 249 4.3 7.0 0.00 0.00 0.00 27 1013.6
20260507054540 55 242 3.5 5.2 0.00 0.00 0.00 27 1013.6
20260507053507 55 261 3.5 4.3 0.00 0.00 0.00 27 1013.6
20260507052520 55 252 2.6 5.2 0.00 0.00 0.00 27 1013.6
20260507051448 55 249 3.5 7.0 0.00 0.00 0.00 27 1013.6
20260507050457 55 241 4.3 7.0 0.00 0.00 0.00 26 1013.5
20260507045516 55 259 4.3 6.1 0.00 0.00 0.00 27 1013.4
20260507044522 54 232 3.5 5.2 0.00 0.00 0.00 27 1013.4
20260507043514 54 229 3.5 4.3 0.00 0.00 0.00 27 1013.4
20260507042506 55 233 2.6 4.3 0.00 0.00 0.00 27 1013.3
20260507041521 55 221 1.7 3.5 0.00 0.00 0.00 26 1013.3
20260507040502 55 238 2.6 4.3 0.00 0.00 0.00 26 1013.2
20260507035454 56 230 3.5 6.1 0.00 0.00 0.00 26 1013.0
20260507034438 55 211 3.5 6.1 0.00 0.00 0.00 26 1012.8
20260507033501 56 226 3.5 5.2 0.00 0.00 0.00 25 1012.7
20260507032444 56 210 3.5 5.2 0.00 0.00 0.00 25 1012.6
20260507031411 56 223 3.5 5.2 0.00 0.00 0.00 25 1012.4
20260507030351 56 221 2.6 5.2 0.00 0.00 0.00 24 1012.2
20260507024217 57 214 3.5 7.8 0.00 0.00 0.00 23 1011.8
20260507023228 58 211 3.5 7.8 0.00 0.00 0.00 22 1011.7
20260507022206 58 182 5.2 10.4 0.00 0.00 0.00 22 1011.5
20260507021144 59 217 5.2 10.4 0.00 0.00 0.00 21 1011.3
20260507020138 60 213 5.2 11.3 0.00 0.00 0.00 20 1011.3
20260507015113 60 146 6.1 11.3 0.00 0.00 0.00 19 1011.2
20260507014048 61 179 7.0 12.2 0.00 0.00 0.00 19 1011.0
20260507013046 62 176 7.8 14.8 0.00 0.00 0.00 18 1010.9
20260507012041 63 195 7.8 14.8 0.00 0.00 0.00 18 1010.7
20260507005948 64 177 7.0 13.0 0.00 0.00 0.00 17 1010.6
20260507004930 65 140 6.1 14.8 0.00 0.00 0.00 17 1010.5
20260507003951 65 160 7.8 14.8 0.00 0.00 0.00 18 1010.4
20260507002939 65 163 7.8 14.8 0.00 0.00 0.00 19 1010.2
20260507001916 66 163 7.8 14.8 0.00 0.00 0.00 18 1010.2
20260507000903 66 148 7.8 14.8 0.00 0.00 0.00 18 1010.0
20260506235902 66 156 7.0 16.5 0.00 0.00 0.00 18 1010.0
20260506234902 66 142 7.8 16.5 0.00 0.00 0.00 18 1010.0
20260506232810 66 182 7.8 16.5 0.00 0.00 0.00 17 1009.9
20260506231811 66 192 9.6 14.8 0.00 0.00 0.00 18 1009.8
20260506230740 66 150 8.7 17.4 0.00 0.00 0.00 17 1009.8
20260506225707 67 180 7.8 17.4 0.00 0.00 0.00 17 1009.9
20260506224647 67 234 7.8 15.6 0.00 0.00 0.00 17 1009.9
20260506223652 68 174 7.8 20.0 0.00 0.00 0.00 17 1010.0
20260506222649 66 237 11.3 20.0 0.00 0.00 0.00 17 1010.0
20260506220457 66 156 9.6 18.2 0.00 0.00 0.00 16 1010.1
20260506215445 66 169 10.4 18.2 0.00 0.00 0.00 17 1010.1
20260506214458 67 194 7.0 15.6 0.00 0.00 0.00 17 1010.1
20260506213518 66 195 7.8 15.6 0.00 0.00 0.00 17 1010.3
20260506212540 65 180 7.8 15.6 0.00 0.00 0.00 20 1010.3